Weather History for Durango, CO

Change the Weather History Date:

Thursday, December 27, 2012

  Actual Average Record
Temperature  
Mean Temperature 14 °F 24 °F  
Max Temperature 27 °F 37 °F 62 °F (1980)
Min Temperature 1 °F 11 °F -16 °F (2008)
Degree Days  
Heating Degree Days 51 41  
Month to date heating degree days 1084 1037  
Since 1 July heating degree days 2533 2710  
Cooling Degree Days 0 0  
Month to date cooling degree days 0 0  
Year to date cooling degree days 477 243  
Moisture  
Dew Point 15 °F    
Average Humidity 80    
Maximum Humidity 92    
Minimum Humidity 68    
Precipitation  
Precipitation T in 0.05 in 1.04 in (1984)
Month to date precipitation 0.90 0.94  
Year to date precipitation 7.81 15.84  
Sea Level Pressure  
Sea Level Pressure 29.86 in    
Wind  
Wind Speed 7 mph (West)    
Max Wind Speed 20 mph    
Max Gust Speed 23 mph    
Visibility 9 miles    
Events Snow    
T = Trace of Precipitation, MM = Missing Value Source: NWS Daily Summary

Daily Weather History Graph

Daily Weather History Graph

Search for Another Location

Airport:

Trip Planner

Search our weather history database for the weather conditions in past years. The results will help you decide how hot, cold, wet, or windy it might be!

Date:

Astronomy

Dec. 27, 2012 Rise Set
Actual Time 7:23 AM MST 5:01 PM MST
Civil Twilight 6:54 AM MST 5:30 PM MST
Nautical Twilight 6:21 AM MST 6:02 PM MST
Astronomical Twilight 5:50 AM MST 6:34 PM MST
Moon 4:46 PM MST (12/27) 6:37 AM MST (12/27)
Length of Visible Light 10h 35m
Length of Day
9h 37m
Full, 100% of the Moon is Illuminated
Dec 27
Full
Dec 28
Full
Jan 4
Last Quarter
Jan 11
New
Jan 18
First Quarter

Hourly Weather History & Observations

Time (MST) Temp. Windchill Dew Point Humidity Pressure Visibility Wind Dir Wind Speed Gust Speed Precip Events Conditions
12:53 AM 15.1 °F 5.2 °F 12.9 °F 91% 29.86 in 10.0 mi North 6.9 mph - N/A   Overcast
1:33 AM 17.6 °F - 15.8 °F 93% 29.73 in 2.5 mi Calm Calm - 0.00 in Snow Light Snow
1:36 AM 17.6 °F - 15.8 °F 93% 29.73 in 1.2 mi Calm Calm - 0.00 in Snow Light Snow
1:47 AM 19.4 °F - 17.6 °F 93% 29.73 in 2.0 mi Calm Calm - 0.00 in Snow Light Snow
1:53 AM 19.9 °F - 18.0 °F 92% 29.83 in 4.0 mi Calm Calm - 0.00 in Snow Light Snow
2:32 AM 19.4 °F 11.5 °F 17.6 °F 93% 29.73 in 10.0 mi WSW 5.8 mph - 0.00 in   Overcast
2:42 AM 19.4 °F 9.5 °F 17.6 °F 93% 29.73 in 10.0 mi WSW 8.1 mph - 0.00 in   Scattered Clouds
2:53 AM 21.0 °F 9.9 °F 19.0 °F 92% 29.83 in 10.0 mi WSW 10.4 mph - 0.00 in   Scattered Clouds
3:53 AM 21.9 °F 10.4 °F 19.0 °F 89% 29.82 in 10.0 mi WSW 11.5 mph - N/A   Overcast
4:53 AM 21.0 °F 9.9 °F 19.0 °F 92% 29.82 in 10.0 mi WSW 10.4 mph - N/A   Scattered Clouds
6:28 AM 19.4 °F 12.8 °F 17.6 °F 93% 29.74 in 9.0 mi SW 4.6 mph - N/A   Mostly Cloudy
6:35 AM 19.4 °F 14.3 °F 17.6 °F 93% 29.74 in 9.0 mi WSW 3.5 mph - N/A   Scattered Clouds
6:53 AM 15.1 °F - 14.0 °F 95% 29.88 in 10.0 mi Calm Calm - N/A   Clear
7:53 AM 10.9 °F 1.4 °F 9.0 °F 92% 29.91 in 10.0 mi North 5.8 mph - N/A   Partly Cloudy
8:53 AM 12.9 °F - 10.9 °F 92% 29.94 in 10.0 mi Calm Calm - N/A   Clear
9:53 AM 19.9 °F 14.9 °F 15.1 °F 81% 29.91 in 10.0 mi NE 3.5 mph - N/A   Clear
10:53 AM 25.0 °F - 18.0 °F 75% 29.91 in 10.0 mi Calm Calm - N/A   Scattered Clouds
11:10 AM 26.6 °F 16.8 °F 17.6 °F 69% 29.76 in 10.0 mi WSW 10.4 mph - N/A   Mostly Cloudy
11:18 AM 26.6 °F 17.5 °F 17.6 °F 69% 29.76 in 10.0 mi WSW 9.2 mph - N/A   Overcast
11:53 AM 26.1 °F 15.0 °F 17.1 °F 69% 29.88 in 10.0 mi WSW 12.7 mph 19.6 mph N/A   Overcast
12:53 PM 26.1 °F 15.0 °F 18.0 °F 71% 29.87 in 10.0 mi WSW 12.7 mph - N/A   Mostly Cloudy
1:53 PM 27.0 °F 13.9 °F 17.1 °F 66% 29.84 in 10.0 mi WSW 18.4 mph - N/A   Clear
2:53 PM 26.1 °F 16.2 °F 18.0 °F 71% 29.84 in 10.0 mi WSW 10.4 mph - N/A   Mostly Cloudy
3:53 PM 25.0 °F 13.6 °F 17.1 °F 72% 29.84 in 10.0 mi WSW 12.7 mph - N/A   Clear
5:53 PM 21.0 °F 10.6 °F 15.1 °F 78% 29.90 in 10.0 mi SW 9.2 mph - N/A   Clear
6:53 PM 19.9 °F 14.9 °F 12.9 °F 74% 29.95 in 10.0 mi West 3.5 mph - N/A   Clear
7:53 PM 12.9 °F 5.2 °F 9.0 °F 84% 30.03 in 10.0 mi NE 4.6 mph - N/A   Clear
8:53 PM 10.9 °F 0.2 °F 7.0 °F 84% 30.04 in 10.0 mi North 6.9 mph - N/A   Clear
9:53 PM 8.1 °F 1.4 °F 5.0 °F 87% 30.03 in 10.0 mi NNE 3.5 mph - N/A   Clear
10:53 PM 7.0 °F -3.3 °F 3.0 °F 84% 30.04 in 10.0 mi North 5.8 mph - N/A   Clear
11:53 PM 6.1 °F -2.8 °F 1.0 °F 80% 30.05 in 10.0 mi North 4.6 mph - N/A   Clear